sat.trackr.live / text

‹ back to catalog

GLOBALSTAR M079

NORAD 37188 · 2010-054A

PAYLOAD ACTIVE UNKNOWN

§ Identity

Operator
Country
GLOB
Launch date
2010-10-19
Launch site
TYMSC
Launch vehicle
Mass (kg)
RCS (m²)
4.83

Purposes: comms

External: N2YO · Heavens-Above · Gunter

§ Orbital elements

Epoch: 2026-09-10T04:03:40.628736Z

Period
114.08 min
Inclination
52.0026°
Eccentricity
0.0000365
Mean motion
12.62267328 rev/d
Perigee alt
1,413.3 km
Apogee alt
1,413.9 km
Semi-major
7,791.7 km
B*
-8.7814e-5
RAAN
209.9721°
Arg perigee
102.1365°
Mean anomaly
270.2575°
Rev number
73,328

§ Raw data

GLOBALSTAR M0791 37188U 10054A   26253.16922024 -.00000120  00000+0 -87814-4 0  99972 37188  52.0026 209.9721 0000365 102.1365 270.2575 12.62267328733286

JSON: /api/v1/satellites/37188 · /tle

For live sub-satellite position, see the globe view (requires WebGL).

§ Visibility from observer

Set your observer location to see the next 7 days of passes ≥ 10°. The values pass through the URL so the page stays shareable.

No JS? Fill the form by hand. The geolocation button needs JavaScript.